FDX6093 EDDK-LFPG

Flight info

Callsign FDX6093
Flight time 0h 46m
Altitude 24000
Route NVO3P NVO Y868 SOGRI UM617 SISGA/N0444F230 UZ319 DELOM DCT MOPIL
Aircraft B77L/H-SDE1E2E3FGHIJ2J3J4J5M1RWXYZ/LB1D1

Departure

Time 2026-05-08 19:04
Airport Cologne Bonn Airport (EDDK)

Arrival

Time 2026-05-08 19:50
Airport Charles de Gaulle International Airport (LFPG)
Time Latitude Longitude Altitude Speed Heading
2026-05-08 18:46 50.87584 7.12765 237 ft 0 kts 227°
2026-05-08 18:56 50.87588 7.12773 237 ft 4 kts 229°
2026-05-08 18:56 50.87605 7.12807 237 ft 4 kts 240°
2026-05-08 18:56 50.87613 7.12833 237 ft 4 kts 249°
2026-05-08 18:57 50.87619 7.12873 237 ft 4 kts 268°
2026-05-08 18:57 50.87616 7.12913 237 ft 4 kts 301°
2026-05-08 18:57 50.87609 7.12928 237 ft 1 kts 317°
2026-05-08 19:00 50.87621 7.12912 237 ft 8 kts 318°
2026-05-08 19:01 50.87659 7.12857 237 ft 6 kts 317°
2026-05-08 19:01 50.87682 7.12824 237 ft 9 kts 317°
2026-05-08 19:01 50.87768 7.12698 237 ft 18 kts 317°
2026-05-08 19:01 50.87860 7.12613 237 ft 13 kts 355°
2026-05-08 19:02 50.87946 7.12658 237 ft 12 kts 37°
2026-05-08 19:02 50.87984 7.12719 239 ft 4 kts 57°
2026-05-08 19:02 50.88003 7.12810 242 ft 13 kts 79°
2026-05-08 19:02 50.88007 7.12949 243 ft 13 kts 99°
2026-05-08 19:03 50.87976 7.13012 243 ft 6 kts 137°
2026-05-08 19:03 50.87877 7.13154 243 ft 44 kts 137°
2026-05-08 19:03 50.87458 7.13762 245 ft 116 kts 137°
2026-05-08 19:03 50.86717 7.14837 276 ft 170 kts 137°
2026-05-08 19:04 50.85825 7.16150 788 ft 173 kts 136°
2026-05-08 19:04 50.84949 7.17453 1375 ft 177 kts 138°
2026-05-08 19:04 50.84006 7.18730 2021 ft 179 kts 137°
2026-05-08 19:04 50.83030 7.20119 2395 ft 198 kts 137°
2026-05-08 19:05 50.81954 7.21621 2775 ft 216 kts 138°
2026-05-08 19:05 50.80791 7.23220 3316 ft 225 kts 139°
2026-05-08 19:05 50.79439 7.24571 3661 ft 243 kts 165°
2026-05-08 19:05 50.77714 7.24446 4133 ft 259 kts 201°
2026-05-08 19:06 50.76229 7.22830 4856 ft 266 kts 229°
2026-05-08 19:06 50.75285 7.20341 5660 ft 267 kts 252°
2026-05-08 19:06 50.75044 7.17446 6535 ft 267 kts 274°
2026-05-08 19:06 50.75337 7.14548 7351 ft 269 kts 281°
2026-05-08 19:07 50.75733 7.11640 8114 ft 273 kts 282°
2026-05-08 19:07 50.76150 7.08701 8903 ft 276 kts 282°
2026-05-08 19:07 50.76570 7.05756 9689 ft 279 kts 282°
2026-05-08 19:07 50.76997 7.02743 10419 ft 284 kts 282°
2026-05-08 19:08 50.77439 6.99589 10723 ft 306 kts 281°
2026-05-08 19:08 50.77911 6.96178 10929 ft 331 kts 281°
2026-05-08 19:08 50.78419 6.92476 11138 ft 356 kts 281°
2026-05-08 19:08 50.78953 6.88567 11727 ft 369 kts 281°
2026-05-08 19:09 50.79498 6.84552 12521 ft 377 kts 281°
2026-05-08 19:09 50.80050 6.80479 13466 ft 381 kts 281°
2026-05-08 19:09 50.80606 6.76348 14339 ft 386 kts 281°
2026-05-08 19:09 50.81169 6.72167 15169 ft 391 kts 281°
2026-05-08 19:10 50.81736 6.67937 15998 ft 395 kts 281°
2026-05-08 19:10 50.82292 6.63697 16797 ft 399 kts 279°
2026-05-08 19:10 50.82593 6.59307 17534 ft 404 kts 272°
2026-05-08 19:10 50.82641 6.54841 18330 ft 408 kts 269°
2026-05-08 19:11 50.82614 6.50339 19062 ft 412 kts 269°
2026-05-08 19:11 50.82588 6.45797 19770 ft 415 kts 269°
2026-05-08 19:11 50.82586 6.41203 20461 ft 419 kts 270°
2026-05-08 19:11 50.82607 6.36579 21126 ft 424 kts 270°
2026-05-08 19:12 50.82643 6.31885 21792 ft 428 kts 270°
2026-05-08 19:12 50.82687 6.27157 22466 ft 432 kts 271°
2026-05-08 19:12 50.82732 6.22384 23130 ft 436 kts 271°
2026-05-08 19:12 50.82776 6.17570 23757 ft 440 kts 271°
2026-05-08 19:13 50.82818 6.12704 24129 ft 445 kts 271°
2026-05-08 19:13 50.82858 6.07725 24109 ft 459 kts 271°
2026-05-08 19:13 50.82896 6.02633 24112 ft 465 kts 271°
2026-05-08 19:13 50.82893 5.97503 24106 ft 466 kts 269°
2026-05-08 19:14 50.82832 5.92374 24099 ft 466 kts 269°
2026-05-08 19:14 50.82735 5.87320 24095 ft 465 kts 268°
2026-05-08 19:14 50.82606 5.82140 24102 ft 465 kts 268°
2026-05-08 19:14 50.82476 5.77078 24104 ft 465 kts 268°
2026-05-08 19:15 50.82352 5.71969 24101 ft 465 kts 268°
2026-05-08 19:15 50.82231 5.66849 24102 ft 465 kts 268°
2026-05-08 19:15 50.82110 5.61747 24100 ft 465 kts 268°
2026-05-08 19:15 50.81986 5.56629 24099 ft 466 kts 268°
2026-05-08 19:16 50.81860 5.51513 24100 ft 466 kts 268°
2026-05-08 19:16 50.81731 5.46383 24100 ft 467 kts 268°
2026-05-08 19:16 50.81601 5.41245 24103 ft 467 kts 268°
2026-05-08 19:16 50.81467 5.36102 24102 ft 468 kts 268°
2026-05-08 19:17 50.81332 5.30972 24100 ft 468 kts 268°
2026-05-08 19:17 50.81195 5.25826 24099 ft 468 kts 268°
2026-05-08 19:17 50.81056 5.20739 24098 ft 468 kts 268°
2026-05-08 19:17 50.80916 5.15607 24097 ft 468 kts 268°
2026-05-08 19:18 50.80771 5.10465 24098 ft 468 kts 268°
2026-05-08 19:18 50.80492 5.05333 24099 ft 468 kts 263°
2026-05-08 19:18 50.79892 5.00267 24100 ft 469 kts 257°
2026-05-08 19:18 50.78974 4.95314 24102 ft 469 kts 253°
2026-05-08 19:19 50.78016 4.90390 24103 ft 469 kts 254°
2026-05-08 19:19 50.77068 4.85453 24099 ft 469 kts 254°
2026-05-08 19:19 50.76133 4.80512 24102 ft 469 kts 254°
2026-05-08 19:19 50.75207 4.75573 24105 ft 470 kts 254°
2026-05-08 19:20 50.74280 4.70623 24106 ft 470 kts 254°
2026-05-08 19:20 50.73968 4.68954 24106 ft 470 kts 254°
2026-05-08 19:20 50.72418 4.60723 24094 ft 471 kts 255°
2026-05-08 19:20 50.71476 4.55759 24101 ft 471 kts 254°
2026-05-08 19:21 50.70531 4.50812 24105 ft 472 kts 254°
2026-05-08 19:21 50.69578 4.45847 24102 ft 472 kts 254°
2026-05-08 19:21 50.68627 4.40900 24101 ft 472 kts 254°
2026-05-08 19:21 50.67671 4.35935 24100 ft 472 kts 254°
2026-05-08 19:22 50.66716 4.30987 24101 ft 472 kts 254°
2026-05-08 19:22 50.65760 4.26035 24098 ft 472 kts 254°
2026-05-08 19:22 50.64802 4.21094 24100 ft 472 kts 254°
2026-05-08 19:22 50.63714 4.16247 24085 ft 469 kts 245°
2026-05-08 19:23 50.61869 4.12074 24100 ft 473 kts 226°
2026-05-08 19:23 50.59194 4.08942 24104 ft 477 kts 208°
2026-05-08 19:23 50.56094 4.07081 24102 ft 480 kts 194°
2026-05-08 19:23 50.52824 4.06396 24086 ft 482 kts 179°
2026-05-08 19:24 50.49497 4.06746 24088 ft 476 kts 176°
2026-05-08 19:24 50.46179 4.06632 24092 ft 479 kts 187°
2026-05-08 19:24 50.42889 4.05704 24103 ft 480 kts 194°
2026-05-08 19:24 50.39680 4.04239 24094 ft 482 kts 201°
2026-05-08 19:25 50.36568 4.02273 24097 ft 482 kts 203°
2026-05-08 19:25 50.33460 4.00297 24092 ft 483 kts 202°
2026-05-08 19:25 50.30339 3.98347 24087 ft 483 kts 202°
2026-05-08 19:25 50.27214 3.96417 24084 ft 482 kts 202°
2026-05-08 19:26 50.24088 3.94500 24083 ft 481 kts 202°
2026-05-08 19:26 50.20972 3.92596 24084 ft 481 kts 202°
2026-05-08 19:26 50.17861 3.90699 24086 ft 480 kts 202°
2026-05-08 19:26 50.14746 3.88802 24084 ft 479 kts 202°
2026-05-08 19:27 50.11646 3.86916 24085 ft 479 kts 202°
2026-05-08 19:27 50.08576 3.85049 24084 ft 479 kts 202°
2026-05-08 19:27 50.05428 3.83137 24086 ft 479 kts 202°
2026-05-08 19:27 50.02356 3.81274 24086 ft 479 kts 202°
2026-05-08 19:28 49.99246 3.79390 24085 ft 480 kts 202°
2026-05-08 19:28 49.96130 3.77505 24085 ft 480 kts 202°
2026-05-08 19:28 49.93054 3.75647 24071 ft 468 kts 202°
2026-05-08 19:28 49.90056 3.73840 23944 ft 457 kts 202°
2026-05-08 19:29 49.87103 3.72061 23400 ft 454 kts 201°
2026-05-08 19:29 49.84168 3.70296 22820 ft 449 kts 201°
2026-05-08 19:29 49.81283 3.68563 22275 ft 443 kts 201°
2026-05-08 19:29 49.78414 3.66842 21706 ft 439 kts 202°
2026-05-08 19:30 49.75580 3.65144 21174 ft 434 kts 201°
2026-05-08 19:30 49.72775 3.63464 20626 ft 430 kts 201°
2026-05-08 19:30 49.69988 3.61798 20103 ft 426 kts 201°
2026-05-08 19:30 49.67240 3.60156 19565 ft 423 kts 202°
2026-05-08 19:31 49.64500 3.58522 19052 ft 419 kts 201°
2026-05-08 19:31 49.61787 3.56905 18532 ft 416 kts 201°
2026-05-08 19:31 49.59133 3.55325 17961 ft 413 kts 201°
2026-05-08 19:31 49.56432 3.53721 17393 ft 409 kts 201°
2026-05-08 19:32 49.53825 3.52173 16849 ft 404 kts 201°
2026-05-08 19:32 49.51226 3.50632 16333 ft 400 kts 201°
2026-05-08 19:32 49.48757 3.48804 15737 ft 391 kts 216°
2026-05-08 19:32 49.46805 3.45912 15439 ft 389 kts 231°
2026-05-08 19:33 49.45323 3.42486 15221 ft 384 kts 242°
2026-05-08 19:33 49.44145 3.38846 15140 ft 379 kts 244°
2026-05-08 19:33 49.43011 3.35197 15091 ft 379 kts 244°
2026-05-08 19:33 49.41874 3.31522 15081 ft 381 kts 244°
2026-05-08 19:34 49.40727 3.27830 15076 ft 383 kts 244°
2026-05-08 19:34 49.39576 3.24149 15071 ft 383 kts 244°
2026-05-08 19:34 49.38415 3.20464 15067 ft 383 kts 244°
2026-05-08 19:34 49.37251 3.16787 15071 ft 383 kts 244°
2026-05-08 19:35 49.36083 3.13116 15068 ft 383 kts 244°
2026-05-08 19:35 49.34916 3.09453 15077 ft 382 kts 244°
2026-05-08 19:35 49.33745 3.05790 15075 ft 382 kts 243°
2026-05-08 19:35 49.32574 3.02130 15062 ft 382 kts 243°
2026-05-08 19:36 49.31408 2.98496 14940 ft 379 kts 243°
2026-05-08 19:36 49.30260 2.94920 14586 ft 375 kts 243°
2026-05-08 19:36 49.29114 2.91354 14172 ft 371 kts 243°
2026-05-08 19:36 49.27979 2.87829 13681 ft 367 kts 243°
2026-05-08 19:37 49.26853 2.84336 13140 ft 364 kts 244°
2026-05-08 19:37 49.25737 2.80879 12656 ft 360 kts 244°
2026-05-08 19:37 49.24632 2.77458 12160 ft 356 kts 243°
2026-05-08 19:37 49.23535 2.74070 11659 ft 353 kts 243°
2026-05-08 19:38 49.22450 2.70720 11254 ft 349 kts 243°
2026-05-08 19:38 49.21358 2.67352 11101 ft 356 kts 243°
2026-05-08 19:38 49.20629 2.65106 11073 ft 354 kts 244°
2026-05-08 19:38 49.19532 2.61736 11067 ft 352 kts 244°
2026-05-08 19:39 49.18466 2.58376 11065 ft 348 kts 248°
2026-05-08 19:39 49.17930 2.54803 11059 ft 343 kts 268°
2026-05-08 19:39 49.17943 2.51166 11087 ft 343 kts 269°
2026-05-08 19:39 49.17902 2.47575 11063 ft 330 kts 268°
2026-05-08 19:40 49.17664 2.44206 11057 ft 311 kts 259°
2026-05-08 19:40 49.17245 2.41052 11055 ft 295 kts 257°
2026-05-08 19:40 49.16808 2.38058 11058 ft 285 kts 257°
2026-05-08 19:40 49.16378 2.35155 10804 ft 276 kts 257°
2026-05-08 19:41 49.15960 2.32360 10261 ft 270 kts 257°
2026-05-08 19:41 49.15504 2.29594 9433 ft 268 kts 249°
2026-05-08 19:41 49.14581 2.27126 8493 ft 269 kts 234°
2026-05-08 19:41 49.13419 2.24829 7546 ft 271 kts 231°
2026-05-08 19:42 49.12261 2.22609 6762 ft 271 kts 230°
2026-05-08 19:42 49.11104 2.20374 6141 ft 263 kts 231°
2026-05-08 19:42 49.10005 2.18228 5611 ft 251 kts 230°
2026-05-08 19:42 49.08956 2.16169 5084 ft 249 kts 231°
2026-05-08 19:43 49.07900 2.14094 4788 ft 245 kts 231°
2026-05-08 19:43 49.06861 2.12053 4437 ft 242 kts 230°
2026-05-08 19:43 49.05625 2.10379 4026 ft 239 kts 201°
2026-05-08 19:43 49.04016 2.09977 4015 ft 238 kts 169°
2026-05-08 19:44 49.02516 2.10928 4008 ft 235 kts 137°
2026-05-08 19:44 49.01509 2.12840 4012 ft 232 kts 120°
2026-05-08 19:44 49.00770 2.15021 3995 ft 230 kts 106°
2026-05-08 19:44 49.00618 2.17366 3988 ft 216 kts 86°
2026-05-08 19:45 49.00711 2.19583 4019 ft 205 kts 86°
2026-05-08 19:45 49.00817 2.21768 4012 ft 208 kts 85°
2026-05-08 19:45 49.00933 2.23950 4009 ft 205 kts 85°
2026-05-08 19:45 49.01051 2.26133 3737 ft 204 kts 85°
2026-05-08 19:46 49.01165 2.28223 3508 ft 193 kts 85°
2026-05-08 19:46 49.01272 2.30216 3243 ft 185 kts 85°
2026-05-08 19:46 49.01477 2.34014 2764 ft 180 kts 85°
2026-05-08 19:47 49.01578 2.35903 2528 ft 176 kts 84°
2026-05-08 19:47 49.01674 2.37676 2290 ft 161 kts 85°
2026-05-08 19:47 49.01761 2.39301 2085 ft 146 kts 84°
2026-05-08 19:47 49.01841 2.40784 1914 ft 142 kts 84°
2026-05-08 19:48 49.01923 2.42306 1729 ft 146 kts 84°
2026-05-08 19:48 49.02011 2.43854 1507 ft 146 kts 84°
2026-05-08 19:48 49.02094 2.45379 1295 ft 143 kts 85°
2026-05-08 19:48 49.02174 2.46892 1166 ft 145 kts 84°
2026-05-08 19:49 49.02259 2.48472 939 ft 152 kts 84°
2026-05-08 19:49 49.02342 2.50055 747 ft 148 kts 83°
2026-05-08 19:49 49.02425 2.51592 524 ft 144 kts 83°
2026-05-08 19:49 49.02506 2.53114 372 ft 142 kts 83°
2026-05-08 19:50 49.02577 2.54424 362 ft 100 kts 85°
2026-05-08 19:50 49.02618 2.55161 365 ft 51 kts 85°
2026-05-08 19:50 49.02636 2.55531 361 ft 32 kts 86°
2026-05-08 19:50 49.02626 2.55795 362 ft 21 kts 107°
2026-05-08 19:51 49.02542 2.55932 365 ft 17 kts 158°
2026-05-08 19:51 49.02454 2.55952 362 ft 12 kts 174°
2026-05-08 19:51 49.02368 2.55963 363 ft 12 kts 176°
2026-05-08 19:51 49.02282 2.55972 365 ft 13 kts 175°
2026-05-08 19:52 49.02193 2.55982 360 ft 13 kts 175°
2026-05-08 19:52 49.02116 2.55976 363 ft 11 kts 205°
2026-05-08 19:52 49.02083 2.55875 365 ft 11 kts 263°
2026-05-08 19:52 49.02076 2.55758 365 ft 11 kts 265°
2026-05-08 19:53 49.02071 2.55641 361 ft 11 kts 265°
2026-05-08 19:53 49.02065 2.55524 364 ft 11 kts 265°
2026-05-08 19:53 49.02058 2.55406 359 ft 11 kts 265°
2026-05-08 19:53 49.02052 2.55288 359 ft 11 kts 265°
2026-05-08 19:54 49.02046 2.55171 366 ft 11 kts 265°
2026-05-08 19:54 49.02041 2.55076 364 ft 9 kts 265°
2026-05-08 19:54 49.02033 2.54979 363 ft 11 kts 256°
2026-05-08 19:54 49.01995 2.54871 365 ft 12 kts 219°
2026-05-08 19:55 49.01929 2.54847 363 ft 6 kts 178°
2026-05-08 19:55 49.01897 2.54849 364 ft 1 kts 178°
2026-05-08 19:55 49.01816 2.54854 365 ft 17 kts 176°
2026-05-08 19:55 49.01695 2.54869 362 ft 17 kts 174°
2026-05-08 19:56 49.01575 2.54887 366 ft 17 kts 174°
2026-05-08 19:56 49.01456 2.54903 365 ft 17 kts 175°
2026-05-08 19:56 49.01344 2.54936 365 ft 15 kts 165°
2026-05-08 19:56 49.01243 2.54982 368 ft 15 kts 163°
2026-05-08 19:57 49.01143 2.55027 365 ft 15 kts 163°
2026-05-08 19:57 49.01042 2.55070 359 ft 15 kts 164°
2026-05-08 19:57 49.00942 2.55113 364 ft 15 kts 164°
2026-05-08 19:57 49.00842 2.55158 362 ft 15 kts 164°
2026-05-08 19:58 49.00743 2.55200 366 ft 15 kts 164°
2026-05-08 19:58 49.00645 2.55242 363 ft 15 kts 163°
2026-05-08 19:58 49.00547 2.55288 367 ft 15 kts 164°
2026-05-08 19:58 49.00448 2.55328 365 ft 15 kts 165°
2026-05-08 19:59 49.00350 2.55371 366 ft 15 kts 163°
2026-05-08 19:59 49.00251 2.55414 364 ft 15 kts 164°
2026-05-08 19:59 49.00153 2.55457 365 ft 15 kts 164°
2026-05-08 19:59 49.00067 2.55494 366 ft 12 kts 164°
2026-05-08 20:00 48.99995 2.55486 366 ft 11 kts 224°
2026-05-08 20:00 48.99980 2.55367 359 ft 14 kts 265°
2026-05-08 20:00 48.99972 2.55221 362 ft 14 kts 265°
2026-05-08 20:00 48.99965 2.55075 359 ft 14 kts 265°
2026-05-08 20:01 48.99958 2.54930 365 ft 14 kts 265°
2026-05-08 20:01 48.99950 2.54787 364 ft 14 kts 265°
2026-05-08 20:01 48.99941 2.54641 362 ft 14 kts 265°
2026-05-08 20:01 48.99934 2.54496 359 ft 14 kts 265°
2026-05-08 20:02 48.99927 2.54350 364 ft 14 kts 265°
2026-05-08 20:02 48.99919 2.54204 365 ft 14 kts 265°
2026-05-08 20:02 48.99912 2.54059 364 ft 14 kts 265°
2026-05-08 20:02 48.99904 2.53913 361 ft 14 kts 265°
2026-05-08 20:03 48.99895 2.53771 359 ft 11 kts 265°
2026-05-08 20:03 48.99866 2.53688 364 ft 10 kts 207°
2026-05-08 20:03 48.99805 2.53647 364 ft 10 kts 214°
2026-05-08 20:03 48.99752 2.53578 363 ft 10 kts 220°
2026-05-08 20:04 48.99699 2.53509 366 ft 10 kts 220°
2026-05-08 20:04 48.99646 2.53440 364 ft 10 kts 220°
2026-05-08 20:04 48.99608 2.53354 362 ft 10 kts 255°
2026-05-08 20:04 48.99573 2.53298 366 ft 6 kts 228°
2026-05-08 20:05 48.99566 2.53251 364 ft 4 kts 269°
2026-05-08 20:05 48.99565 2.53231 365 ft 3 kts 265°
2026-05-08 20:05 48.99563 2.53191 363 ft 4 kts 265°
2026-05-08 20:05 48.99562 2.53168 364 ft 0 kts 265°
2026-05-08 20:06 48.99562 2.53165 364 ft 0 kts 265°